Погода в Ахсарисаре

Россия / Республика Северная Осетия — Алания     43°08′09″N   43°49′06″E
темп.,
°C
ветер,
м/с
пор.,
м/с
влажн.,
%
обл.,
%
осадки,
мм/ч
давл.,
гПа
погр.,
м
13 мая, чт
чт1300:00+9юз22800 0.0 101525
03:00+9ююз22720 0.0 101319
06:00+12зюз11630 0.0 101319
09:00+18св22520 0.0 1013529
12:00+21св425239 0.0 1014855
15:00+21всв32553 0.0 1014967
18:00+18всв12742 0.0 1014155
21:00+14юз2284100 0.0 101618
14 мая, пт
пт1400:00+14юз3263100 0.0 101423
03:00+13юз32540 0.0 101422
06:00+15юз22575 0.0 101419
09:00+22всв11450 0.0 1013377
12:00+25всв32427 0.0 1012898
15:00+25всв32475 0.0 10121025
18:00+22всв23710 0.0 1012105
21:00+17юз327797 0.1 101433
15 мая, сб
сб1500:00+16юз335495 0.0 101244
03:00+16юз33512 0.0 101333
06:00+16юз336098 0.1 101442
09:00+24ссв224012 0.1 1013527
12:00+25ссв334637 0.0 10141119
15:00+24св2254100 0.8 10131349
18:00+17юз2384100 2.4 101450
21:00+16юз337667 3.0 101444
16 мая, вс
вс1600:00+15юз346999 0.1 101342
03:00+15юз326212 0.1 101228
06:00+16юз33618 0.0 101143
09:00+22всв22481 0.0 1009637
12:00+24св43480 0.0 10081190
15:00+25всв33481 0.0 10071429
18:00+22св24717 0.0 1007311
21:00+17юз3375100 0.0 100736
17 мая, пн
пн1700:00+16юз335038 0.0 100640
03:00+16юз2249100 0.0 100629
06:00+17юз22570 0.0 100630
09:00+24св21420 0.0 1005507
12:00+25св32445 0.0 1006864
15:00+25св32495 0.0 1006999
18:00+22с24688 0.0 1007304
21:00+16юз22897 1.1 101025